sat.trackr.live / text

‹ back to catalog

STARLINK-33714

NORAD 63581 · 2025-076N

PAYLOAD ACTIVE UNKNOWN

§ Identity

Operator
Country
US
Launch date
2025-04-14
Launch site
AFETR
Launch vehicle
Mass (kg)
RCS (m²)

Purposes: comms

External: N2YO · Heavens-Above · Gunter

§ Orbital elements

Epoch: 2026-09-20T10:02:39.597504Z

Period
94.27 min
Inclination
43.0012°
Eccentricity
0.0001173
Mean motion
15.27587091 rev/d
Perigee alt
482.2 km
Apogee alt
483.8 km
Semi-major
6,861.2 km
B*
3.3572e-4
RAAN
301.7955°
Arg perigee
259.5781°
Mean anomaly
100.4939°
Rev number
8,161

§ Raw data

STARLINK-337141 63581U 25076N   26263.41851386  .00008989  00000+0  33572-3 0  99942 63581  43.0012 301.7955 0001173 259.5781 100.4939 15.27587091 81611

JSON: /api/v1/satellites/63581 · /tle

For live sub-satellite position, see the globe view (requires WebGL).

§ Visibility from observer

Set your observer location to see the next 7 days of passes ≥ 10°. The values pass through the URL so the page stays shareable.

No JS? Fill the form by hand. The geolocation button needs JavaScript.